STARLINK-3894 (52499 NORAD) Tracking and Keplerian Element Data

This shows tracking and keplerian element data for the satellite.

Feedback or suggestion? Click here.




ElementValue
Catalog52499
NameSTARLINK-3894
Epoch Orbit130
Epoch Day167.08334491
Epoch Year2022
RAAN64.9659
Inclination53.2181
Eccentricity0.0001758
Argument of Perigee31.9891
Mean Anonmoly123.8636
Mean Motion15.7324393
Decay Rate0.00021274
L11 52499U 22049BA 22167.08334491 .00021274 00000+0 15532-3 0 9990
L22 52499 53.2181 64.9659 0001758 31.9891 123.8636 15.73243930 1302

Live tracking and technical data element details for STARLINK-3894 (NORAD 52499). STARLINK-3894 can be tracked NOW for your location showing map with azimuth and elevation plus other details from your city location.

Track the satellite on the map from your city or location and see movement details for azimuth, elevation, latitude, longitude, range, height, and movement on the map or in text.







IsCatalogInMostPopularTable: catalog: 52499, numindb: 1
Update: records affected: 1



GetName: 52499 STARLINK-3894

Hit Count: updated at: Mon, 27 Jun 2022 05:52:29 GMT